Погода в Поповке

Россия / Курская область     51°31′19″N   34°39′55″E
темп.,
°C
ветер,
м/с
пор.,
м/с
влажн.,
%
обл.,
%
осадки,
мм/ч
давл.,
гПа
погр.,
м
1 августа, вс
вс100:00+21юз225816 0.0 101111
03:00+19ююз226140 0.0 101214
06:00+19ю22665 0.0 101230
09:00+25ююз344912 0.0 1012397
12:00+30ююз563816 0.0 10112138
15:00+32юз663467 0.0 10102955
18:00+31зюз13381 0.0 1009738
21:00+21з5108257 1.1 1011157
2 августа, пн
пн200:00+21ссв1180100 0.2 101011
03:00+20ю22835 0.8 101020
06:00+20ю35775 0.1 100987
09:00+25ююз4759100 0.1 1009327
12:00+30ююз7104680 0.0 10081625
15:00+29юз51042100 0.0 1007422
18:00+31ююз5104798 0.5 1004876
21:00+19ююв71487100 14.5 1008340
3 августа, вт
вт300:00+19ююз71492100 0.2 1008556
03:00+18зюз510960 0.2 1008329
06:00+16зсз4109427 0.0 1010444
09:00+18сз577741 0.0 1011715
12:00+23ссз5655100 0.0 10121419
15:00+24сз4547100 0.0 10122147
18:00+21зсз3860100 0.0 1013233
21:00+20сз3563100 0.0 1014111
4 августа, ср
ср400:00+17зсз22739 0.0 101522
03:00+15зсз22803 0.0 101611
06:00+15з22826 0.0 101744
09:00+21зсз23565 0.0 1018504
12:00+24зсз3537100 0.0 10182537
15:00+24сз454126 0.0 10181013
18:00+24ссз344280 0.0 1018911
21:00+18всв22550 0.0 101911
5 августа, чт
чт500:00+16вюв225985 0.0 101915
03:00+16ююв226220 0.0 101917
06:00+16ююв3464100 0.0 101966
09:00+21ююв4553100 0.0 1018318
12:00+26ююв5642100 0.0 10171155
15:00+28ю563880 0.0 10151897
18:00+25юв354978 0.0 1014161
21:00+22юв4105317 0.0 1012155